Location: Skymont Scout Reservation
(35.4344°N, 85.8742°W)
Time: 11:50:19
(UTC-06:00)

ISS - All Passes

Search period start: 24 November 2014 00:00
Search period end: 04 December 2014 00:00
Orbit: 407 x 417 km, 51.6° (Epoch: 24 November)

Date Brightness Start Highest point End Pass type
(mag) Time Alt. Az. Time Alt. Az. Time Alt. Az.
24 Nov - 00:09:39 10° WSW 00:12:39 32° NW 00:15:40 10° NNE night (unlit)
24 Nov - 05:05:13 10° N 05:06:23 11° NNE 05:07:32 10° NE visible
24 Nov - 06:40:14 10° NW 06:43:32 72° NE 06:46:49 10° SE daylight
24 Nov - 21:46:24 10° SE 21:46:40 10° SE 21:46:55 10° ESE night (unlit)
24 Nov - 23:19:38 10° WSW 23:22:53 61° NW 23:26:09 10° NE night (unlit)
25 Nov - 00:59:26 10° NW 01:00:06 10° NNW 01:00:46 10° N night (unlit)
25 Nov - 05:50:40 10° NNW 05:53:46 37° NE 05:56:51 10° ESE visible
25 Nov - 07:27:56 10° W 07:30:11 17° SW 07:32:26 10° S daylight
25 Nov - 22:29:54 10° SW 22:33:09 65° SE 22:36:24 10° NE night (unlit)
26 Nov - 00:08:04 10° WNW 00:10:05 15° NNW 00:12:06 10° N night (unlit)
26 Nov - 05:01:13 10° NNW 05:03:53 22° NNE 05:06:32 10° E visible
26 Nov - 06:37:33 10° WNW 06:40:34 33° SW 06:43:34 10° SSE daylight
26 Nov - 21:40:30 10° SSW 21:43:26 31° SE 21:46:23 10° ENE night (unlit)
26 Nov - 23:17:23 10° W 23:20:05 23° NNW 23:22:47 10° NNE night (unlit)
27 Nov - 04:11:56 10° N 04:13:52 15° NNE 04:15:48 10° ENE visible
27 Nov - 05:47:32 10° NW 05:50:49 71° SW 05:54:06 10° SE visible
27 Nov - 20:51:38 10° SSE 20:53:44 16° SE 20:55:49 10° E night (unlit)
27 Nov - 22:27:00 10° WSW 22:30:07 39° NW 22:33:14 10° NE night (unlit)
28 Nov - 03:23:29 10° NNE 03:23:44 10° NNE 03:23:58 10° NNE visible
28 Nov - 04:57:42 10° NW 05:00:57 56° NE 05:04:12 10° ESE visible
28 Nov - 06:36:14 10° WSW 06:37:12 11° SW 06:38:11 10° SW daylight
28 Nov - 21:36:54 10° SW 21:40:10 78° NW 21:43:28 10° NE night (unlit)
28 Nov - 23:15:58 10° NW 23:17:17 12° NNW 23:18:35 10° N night (unlit)
29 Nov - 04:08:00 10° NNW 04:10:58 30° NE 04:13:56 10° E visible
29 Nov - 05:44:53 10° WNW 05:47:28 21° SW 05:50:03 10° S visible
29 Nov - 20:47:04 10° SSW 20:50:15 49° SE 20:53:27 10° ENE night (unlit)
29 Nov - 22:24:47 10° WNW 22:27:05 17° NNW 22:29:23 10° NNE night (unlit)
30 Nov - 03:18:25 10° NNW 03:20:51 19° NNE 03:23:17 10° ENE visible
30 Nov - 04:54:29 10° WNW 04:57:37 43° SW 05:00:45 10° SSE visible
30 Nov - 19:57:38 10° S 20:00:22 24° SE 20:03:06 10° ENE night (unlit)
30 Nov - 21:34:02 10° W 21:36:54 27° NW 21:39:48 10° NNE night (unlit)
01 Dec - 02:29:03 10° N 02:30:37 13° NNE 02:32:10 10° NE night (unlit)
01 Dec - 04:04:21 10° NW 04:07:39 89° NE 04:10:56 10° SE visible
01 Dec - 19:09:00 10° SSE 19:10:29 13° SE 19:11:58 10° E night (unlit)
01 Dec - 20:43:34 10° WSW 20:46:46 49° NW 20:49:59 10° NE night (unlit)
02 Dec - 03:14:23 10° NW 03:17:34 44° NE 03:20:43 10° ESE night (unlit)
02 Dec - 04:52:04 10° W 04:53:53 14° SW 04:55:42 10° SSW visible
02 Dec - 19:53:22 10° SW 19:56:39 80° SE 19:59:57 10° NE night (unlit)
02 Dec - 21:31:53 10° WNW 21:33:38 14° NNW 21:35:24 10° N night (unlit)
03 Dec - 02:24:33 10° NNW 02:27:21 25° NNE 02:30:08 10° E night (unlit)
03 Dec - 04:01:05 10° WNW 04:03:56 27° SW 04:06:46 10° SSE visible
03 Dec - 19:03:30 10° SSW 19:06:34 37° SE 19:09:38 10° ENE visible
03 Dec - 20:40:43 10° W 20:43:16 20° NNW 20:45:49 10° NNE night (unlit)
